Orbital Elements at Epoch 2459200.5 (2020-Dec-17.0) TDB
Reference: JPL 11 (heliocentric ecliptic J2000)
Element | Value | Uncertainty (1-sigma) | Units |
e | .2507596026434746 | 4.6785e-08 | |
a | 3.072510453559294 | 1.7647e-08 | au |
q | 2.302048953106844 | 1.4612e-07 | au |
i | 12.49197683295739 | 4.6915e-06 | deg |
node | 257.2247231984459 | 2.7283e-05 | deg |
peri | 136.901399322231 | 3.0052e-05 | deg |
M | 263.3826882962758 | 1.2188e-05 | deg |
tp | 2459728.447732886429 (2022-May-28.94773289) | 6.9525e-05 | TDB |
period | 1967.154544952925 5.39 | 1.6948e-05 4.64e-08 | d yr |
n | .1830054486179758 | 1.5767e-09 | deg/d |
Q | 3.842971954011745 | 2.2073e-08 | au |
|
| | Orbit Determination Parameters
Additional Information
|